SOUTHWEST HAWAII 215NM SSW of Hilo, HI (51002)

Conditions for Saturday

Daily
Weekly
Monthly
Marine Data Graph

Marine & Boating Location Search

Enter a coastal zip code for marine weather.

General Information

Location: 17.056 North -157.803 West
Buoy Type: 3-meter discus buoy
Buoy Hull: 3D90
Payload: ARES payload
Owned by: NDBC
Windspeed: Measured by obtained from anemometer
Sea Surface: Measured by Intake

Weather and Wave Data

Time Temp Humidity Wind Dominant Wave Wind Wave Wave Swell Pressure
  Air
(°F)
Water
(°F)
  Dir Speed
(kts)
Speed
(mph)
Period
(sec)
Height
(ft)
Range
(ft)
Period
(sec)
Height
(ft)
Range
(ft)
Period
(sec)
Height
(ft)
Range
(ft)
Atmo.
(in)
Tend.
(in)
20:20 81 83 78 ENE 13.6 15.7 - - - - - - 29.97 -
20:30 81 82 79 ENE 13.6 15.7 - - - - - - 29.97 -
20:40 81 82 78 ENE 13.6 15.7 - - - - - - 29.97 -
21:10 81 82 78 ENE 11.7 13.4 - - - - - - 29.99 -
21:20 81 82 78 ENE 13.6 15.7 - - - - - - 29.99 -
21:40 81 82 77 ENE 13.6 15.7 - - - - - - 29.98 -
21:50 81 82 78 NE 11.7 13.4 16 6.56 exactly 6.6 6 3.28 2.46 - 4.10 16 6.56 5.74 - 7.38 29.99 -
22:10 81 82 80 ENE 13.6 15.7 - - - - - - 29.98 -
22:30 81 82 79 NE 11.7 13.4 - - - - - - 29.98 -
22:40 81 82 79 NE 13.6 15.7 - - - - - - 29.99 -
23:10 81 82 80 NE 11.7 13.4 - - - - - - 29.98 -
23:20 81 82 80 ENE 13.6 15.7 - - - - - - 29.98 -
23:30 81 82 80 ENE 13.6 15.7 - - - - - - 29.97 -
23:40 81 82 79 ENE 13.6 15.7 - - - - - - 29.97 -
23:50 81 82 79 NE 13.6 15.7 15 6.23 exactly 6.2 7 3.28 2.46 - 4.10 15 4.92 4.10 - 5.74 29.97 -
00:00 81 82 79 NE 13.6 15.7 - - - - - - 29.98 -0.02
00:10 81 82 79 NE 13.6 15.7 - - - - - - 29.96 -
00:20 81 82 80 NE 13.6 15.7 - - - - - - 29.96 -
00:40 81 82 80 NE 13.6 15.7 - - - - - - 29.96 -
00:50 81 82 80 NE 13.6 15.7 14 5.58 exactly 5.6 4 3.28 2.46 - 4.10 14 4.92 4.10 - 5.74 29.96 -
01:00 81 82 79 NE 13.6 15.7 - - - - - - 29.96 -0.03
01:10 81 82 78 NE 13.6 15.7 - - - - - - 29.95 -
01:20 81 82 78 NE 13.6 15.7 - - - - - - 29.94 -
01:30 81 82 79 NE 11.7 13.4 - - - - - - 29.94 -
01:40 81 82 78 NE 11.7 13.4 - - - - - - 29.94 -
01:50 81
-
79 NE 11.7 13.4 15 6.23 exactly 6.2 5 3.28 2.46 - 4.10 15 4.92 4.10 - 5.74 29.93 -
02:10 81 82 78 NE 13.6 15.7 - - - - - - 29.92 -
02:20 81 82 78 NE 13.6 15.7 - - - - - - 29.92 -
02:40 81 82 78 ENE 13.6 15.7 - - - - - - 29.92 -
02:50 81 82 78 NE 13.6 15.7 15 6.23 exactly 6.2 6 3.28 2.46 - 4.10 15 4.92 4.10 - 5.74 29.92 -
03:20 81 82 78 NE 13.6 15.7 - - - - - - 29.92 -
03:40 81 82 79 NE 13.6 15.7 - - - - - - 29.91 -
03:50 81 82 78 ENE 15.6 17.9 14 4.92 exactly 4.9 7 3.28 2.46 - 4.10 14 3.28 2.46 - 4.10 29.91 -
04:00 81 82 78 ENE 15.6 17.9 - - - - - - 29.91 -0.05
04:20 81 82 80 NE 13.6 15.7 - - - - - - 29.91 -
04:30 81 82 80 NE 15.6 17.9 - - - - - - 29.91 -
04:40 81 82 80 ENE 15.6 17.9 - - - - - - 29.91 -
04:50 81 82 79 ENE 15.6 17.9 9 5.58 exactly 5.6 5 3.28 2.46 - 4.10 9 4.92 4.10 - 5.74 29.91 -
05:10 81 82 80 NE 13.6 15.7 - - - - - - 29.92 -
05:20 81 82 80 NE 15.6 17.9 - - - - - - 29.91 -
05:30 81 82 80 NE 15.6 17.9 - - - - - - 29.92 -
05:50 81 82 80 NE 15.6 17.9 15 5.58 exactly 5.6 5 3.28 2.46 - 4.10 15 4.92 4.10 - 5.74 29.92 -
06:00 81 82 80 NE 15.6 17.9 - - - - - - 29.93 -
06:10 81 82 80 NE 17.5 20.1 - - - - - - 29.93 -
06:20 81 82 80 NE 17.5 20.1 - - - - - - 29.94 -
06:30 81 82 80 NE 17.5 20.1 - - - - - - 29.94 -
06:40 81 82 80 NE 17.5 20.1 - - - - - - 29.94 -
06:50 81 82 80 NE 17.5 20.1 14 5.58 exactly 5.6 5 3.28 2.46 - 4.10 14 4.92 4.10 - 5.74 29.95 -
07:00 82
-
NE 15.6 17.9 - - - - - - 29.95 +0.04
07:10 81 82 80 NE 17.5 20.1 - - - - - - 29.96 -
07:20 81 82 80 NE 17.5 20.1 - - - - - - 29.96 -
07:30 80 82 84 NE 17.5 20.1 - - - - - - 29.96 -
08:10 81 82 82 NE 15.6 17.9 - - - - - - 29.97 -
08:20 81 82 83 NE 15.6 17.9 - - - - - - 29.97 -
08:30 81 82 83 NE 13.6 15.7 - - - - - - 29.98 -
08:40 80 82 85 ENE 15.6 17.9 - - - - - - 29.99 -
09:30 82 82 77 ENE 15.6 17.9 - - - - - - 29.99 -
09:40 82 82 78 ENE 15.6 17.9 - - - - - - 29.99 -
10:00 82 82 78 ENE 15.6 17.9 - - - - - - 29.99 +0.04
10:20 81 82 74 ENE 15.6 17.9 - - - - - - 29.98 -
10:30 81 82 75 ENE 11.7 13.4 - - - - - - 29.97 -
10:40 81 82 78 ENE 13.6 15.7 - - - - - - 29.97 -
11:10 80 82 83 NE 11.7 13.4 - - - - - - 29.95 -
11:20 80 82 82 NE 11.7 13.4 - - - - - - 29.94 -
11:40 81 83 80 NE 13.6 15.7 - - - - - - 29.93 -
11:50 81 83 81 NE 13.6 15.7 14 5.25 exactly 5.2 5 3.28 2.46 - 4.10 14 3.28 2.46 - 4.10 29.93 -
12:10 81 83 82 ENE 13.6 15.7 - - - - - - 29.92 -
12:20 81 83 82 ENE 13.6 15.7 - - - - - - 29.92 -
12:40 81 83 82 ENE 13.6 15.7 - - - - - - 29.92 -
12:50 81 83 82 ENE 13.6 15.7 14 5.58 exactly 5.6 5 3.28 2.46 - 4.10 14 4.92 4.10 - 5.74 29.91 -
13:10 81 83 83 ENE 13.6 15.7 - - - - - - 29.91 -
13:20 81 83 83 ENE 13.6 15.7 - - - - - - 29.91 -
13:30 81 83 82 East 13.6 15.7 - - - - - - 29.90 -
13:40 81 83 81 East 13.6 15.7 - - - - - - 29.90 -
13:50 81 83 82 East 13.6 15.7 14 5.58 exactly 5.6 5 3.28 2.46 - 4.10 14 4.92 4.10 - 5.74 29.89 -
14:00 81 83 81 East 13.6 15.7 - - - - - - 29.89 -0.06
14:20 81 83 80 East 11.7 13.4 - - - - - - 29.89 -
14:30 81 83 79 East 13.6 15.7 - - - - - - 29.89 -
14:40 81 83 79 East 11.7 13.4 - - - - - - 29.88 -
14:50 81 83 78 East 11.7 13.4 14 5.25 exactly 5.2 5 3.28 2.46 - 4.10 14 4.92 4.10 - 5.74 29.88 -
15:10 81 83 74 East 13.6 15.7 - - - - - - 29.88 -
15:20 81
-
74 East 11.7 13.4 - - - - - - 29.88 -
15:30 81 83 74 East 11.7 13.4 - - - - - - 29.88 -
15:40 81 83 74 ESE 11.7 13.4 - - - - - - 29.88 -
15:50 81 83 74 ESE 9.7 11.2 14 5.25 exactly 5.2 5 3.28 2.46 - 4.10 14 4.92 4.10 - 5.74 29.88 -
16:00
-
-
East 9.7 11.2 - - - - - - 29.88 -0.03
16:10 81 83 74 East 9.7 11.2 - - - - - - 29.88 -
16:20 82 83 72 East 9.7 11.2 - - - - - - 29.88 -
16:30 81 83 75 East 7.8 8.9 - - - - - - 29.89 -
16:50 82 83 74 East 9.7 11.2 15 5.25 exactly 5.2 4 1.64 0.82 - 2.46 15 4.92 4.10 - 5.74 29.89 -
17:10 82 83 74 East 11.7 13.4 - - - - - - 29.89 -
17:20 81 83 77 East 13.6 15.7 - - - - - - 29.89 -
17:30 82 83 75 East 13.6 15.7 - - - - - - 29.90 -
17:40 81 83 78 East 13.6 15.7 - - - - - - 29.90 -
18:10 81 83 79 East 13.6 15.7 - - - - - - 29.91 -
18:20 82 83 76 East 13.6 15.7 - - - - - - 29.91 -
18:40 81 83 80 East 13.6 15.7 - - - - - - 29.90 -
18:50 81 83 80 East 13.6 15.7 19 5.58 exactly 5.6 5 3.28 2.46 - 4.10 19 4.92 4.10 - 5.74 29.90 -
19:10 81 83 80 East 13.6 15.7 - - - - - - 29.91 -
19:30 81 83 80 East 13.6 15.7 - - - - - - 29.91 -
19:40 81 83 80 East 13.6 15.7 - - - - - - 29.91 -
19:50 81 83 80 East 13.6 15.7 19 5.91 exactly 5.9 5 3.28 2.46 - 4.10 19 4.92 4.10 - 5.74 29.92 -
20:10 82 83 77 East 13.6 15.7 - - - - - - 29.93 -
20:20 82 83 78 East 13.6 15.7 - - - - - - 29.93 -
20:30 81 83 80 East 13.6 15.7 - - - - - - 29.93 -
20:40 82 83 77 East 13.6 15.7 - - - - - - 29.93 -
20:50 81 83 80 East 13.6 15.7 17 5.91 exactly 5.9 6 3.28 2.46 - 4.10 17 4.92 4.10 - 5.74 29.93 -
21:10 82 82 74 East 13.6 15.7 - - - - - - 29.94 -
21:50 81 82 80 East 11.7 13.4 17 6.23 exactly 6.2 5 3.28 2.46 - 4.10 17 4.92 4.10 - 5.74 29.94 -
22:10 81 82 78 East 11.7 13.4 - - - - - - 29.94 -
22:20 81 82 78 East 11.7 13.4 - - - - - - 29.94 -
22:30 81 82 78 East 11.7 13.4 - - - - - - 29.94 -
22:40 81 82 79 East 9.7 11.2 - - - - - - 29.94 -
23:00 81 82 79 East 11.7 13.4 - - - - - - 29.93 -
23:10 81 82 79 East 13.6 15.7 - - - - - - 29.93 -
23:40 81 82 78 East 11.7 13.4 - - - - - - 29.92 -
23:50 81 82 77 ENE 11.7 13.4 16 6.23 exactly 6.2 5 3.28 2.46 - 4.10 16 6.56 5.74 - 7.38 29.92 -
00:10 81 82 76 ENE 9.7 11.2 - - - - - - 29.91 -
00:20 81 82 75 ENE 9.7 11.2 - - - - - - 29.91 -
00:30 81
-
75 ENE 9.7 11.2 - - - - - - 29.94 -
00:50 81 82 74 ENE 9.7 11.2 15 7.55 exactly 7.5 4 1.64 0.82 - 2.46 15 6.56 5.74 - 7.38 29.91 -
01:00 81
-
75 ENE 9.7 11.2 - - - - - - 29.90 -0.03
01:10 81 82 75 ENE 9.7 11.2 - - - - - - 29.90 -
01:20 81 82 75 ENE 9.7 11.2 - - - - - - 29.89 -
01:40 81 82 75 NE 7.8 8.9 - - - - - - 29.90 -
01:50 81 82 75 NE 7.8 8.9 14 8.86 exactly 8.9 4 1.64 0.82 - 2.46 14 8.20 7.38 - 9.02 29.89 -
02:00 81 82 76 NNE 7.8 8.9 - - - - - - 29.91 -0.04
02:20 81 82 76 NE 7.8 8.9 - - - - - - 29.89 -
02:30 81 82 77 NE 9.7 11.2 - - - - - - 29.89 -
02:40 81 82 77 NE 9.7 11.2 - - - - - - 29.89 -
02:50 81 82 77 NNE 9.7 11.2 14 10.17 exactly 10.2 4 1.64 0.82 - 2.46 14 9.84 9.02 - 10.66 29.88 -
03:00 81 82 77 NNE 9.7 11.2 - - - - - - 29.88 -0.04
03:30 78 82 85 ENE 21.4 24.6 - - - - - - 29.88 -
03:40 77 82 87 ENE 17.5 20.1 - - - - - - 29.89 -
03:50 77 82 90 NE 19.4 22.4 13 9.51 exactly 9.5 6 3.28 2.46 - 4.10 13 8.20 7.38 - 9.02 29.89 -

Detailed Wave Spectra

Time Water Depth Wave Height Spectral Peak Period Average Wave Period Sampling Interval Wave Record
21:00 16234 ft 7.15 ft 14.8 sec 8.1 sec 0.6 sec 2400 sec
22:00 16234 ft 6.50 ft 16.0 sec 7.4 sec 0.6 sec 2400 sec
13:00 16234 ft 5.61 ft 13.8 sec 6.0 sec 0.6 sec 2400 sec
15:00 16234 ft 5.28 ft 13.8 sec 6.0 sec 0.6 sec 2400 sec
17:00 16234 ft 5.12 ft 14.8 sec 6.4 sec 0.6 sec 2400 sec
18:00 16234 ft 5.64 ft 13.8 sec 7.0 sec 0.6 sec 2400 sec
19:00 16234 ft 5.54 ft 19.0 sec 6.7 sec 0.6 sec 2400 sec
21:00 16234 ft 5.84 ft 17.4 sec 6.6 sec 0.6 sec 2400 sec
22:00 16234 ft 6.30 ft 17.4 sec 7.1 sec 0.6 sec 2400 sec
00:00 16234 ft 6.30 ft 16.0 sec 7.3 sec 0.6 sec 2400 sec